When you browse on this site, cookies collect data to enhance your experience and personalize the content and advertising you see.
Visit our Privacy Policy to learn more. By continuing to use the site, you agree to this use of cookies and data.
  • In Österreich
  • Länderverzeichnis
  • Für 7 Tage
  • Wassertemperatur
  • Satellitenkarten
  • Wetterkarte
  • News
  • Widgets
  • user-avatar
    Anmelden

    Stündliche Wetter Baku

    Heute, 24 März, Sonntag

    Zeit Temperatur Niederschläge Wind Luftdruck Luftfeuchtigkeit
    00:00 +9°C° 0 mm 6 m/S 759 mmHg 82%
    01:00 +9°C° 0 mm 6 m/S 759 mmHg 83%
    02:00 +9°C° 0 mm 5 m/S 758 mmHg 84%
    03:00 +9°C° 0 mm 5 m/S 758 mmHg 85%
    04:00 +8°C° 0 mm 4 m/S 758 mmHg 86%
    05:00 +9°C° 0 mm 3 m/S 758 mmHg 87%
    06:00 +8°C° 0 mm 2 m/S 759 mmHg 88%
    07:00 +7°C° 0 mm 4 m/S 759 mmHg 85%
    08:00 +7°C° 0 mm 6 m/S 759 mmHg 82%
    09:00 +6°C° 0 mm 8 m/S 759 mmHg 80%
    10:00 +7°C° 0 mm 8 m/S 759 mmHg 78%
    11:00 +7°C° 0 mm 8 m/S 759 mmHg 76%
    12:00 +8°C° 0 mm 9 m/S 759 mmHg 74%
    13:00 +8°C° 0 mm 9 m/S 759 mmHg 73%
    14:00 +8°C° 0 mm 10 m/S 759 mmHg 72%
    15:00 +7°C° 0 mm 11 m/S 758 mmHg 72%
    16:00 +7°C° 0 mm 11 m/S 758 mmHg 74%
    17:00 +6°C° 0 mm 11 m/S 759 mmHg 76%
    18:00 +5°C° 0 mm 12 m/S 759 mmHg 79%
    19:00 +4°C° 0 mm 12 m/S 759 mmHg 79%
    20:00 +4°C° 0 mm 12 m/S 759 mmHg 78%
    21:00 +4°C° 0 mm 12 m/S 759 mmHg 78%
    22:00 +4°C° 0.1 mm 12 m/S 759 mmHg 78%
    23:00 +4°C° 0.1 mm 12 m/S 759 mmHg 77%

    Morgen, 25 März, Montag

    Zeit Temperatur Niederschläge Wind Luftdruck Luftfeuchtigkeit
    00:00 +4°C° 0.1 mm 12 m/S 760 mmHg 77%
    01:00 +4°C° 0 mm 13 m/S 760 mmHg 76%
    02:00 +4°C° 0 mm 13 m/S 760 mmHg 76%
    03:00 +4°C° 0 mm 13 m/S 760 mmHg 75%
    04:00 +4°C° 0.1 mm 14 m/S 760 mmHg 74%
    05:00 +4°C° 0.1 mm 14 m/S 760 mmHg 73%
    06:00 +4°C° 0.1 mm 14 m/S 761 mmHg 72%
    07:00 +4°C° 0.4 mm 14 m/S 761 mmHg 71%
    08:00 +4°C° 0.4 mm 15 m/S 761 mmHg 69%
    09:00 +4°C° 0.4 mm 15 m/S 762 mmHg 68%
    10:00 +4°C° 0.4 mm 15 m/S 762 mmHg 69%
    11:00 +4°C° 0.4 mm 14 m/S 762 mmHg 70%
    12:00 +4°C° 0.4 mm 14 m/S 762 mmHg 71%
    13:00 +4°C° 0.4 mm 13 m/S 761 mmHg 72%
    14:00 +4°C° 0.4 mm 13 m/S 761 mmHg 74%
    15:00 +4°C° 0.4 mm 12 m/S 761 mmHg 75%
    16:00 +4°C° 0.3 mm 12 m/S 761 mmHg 74%
    17:00 +4°C° 0.3 mm 11 m/S 762 mmHg 73%
    18:00 +4°C° 0.3 mm 11 m/S 762 mmHg 72%
    19:00 +5°C° 0.1 mm 10 m/S 762 mmHg 72%
    20:00 +3°C° 0.1 mm 10 m/S 763 mmHg 72%
    21:00 +3°C° 0.1 mm 9 m/S 763 mmHg 71%
    22:00 +4°C° 0 mm 8 m/S 763 mmHg 71%
    23:00 +4°C° 0 mm 7 m/S 763 mmHg 70%

    übermorgen, 26 März, Dienstag

    Zeit Temperatur Niederschläge Wind Luftdruck Luftfeuchtigkeit
    00:00 +4°C° 0 mm 7 m/S 763 mmHg 70%
    01:00 +4°C° 0 mm 6 m/S 763 mmHg 70%
    02:00 +4°C° 0 mm 6 m/S 763 mmHg 70%
    03:00 +5°C° 0 mm 5 m/S 763 mmHg 70%
    04:00 +5°C° 0 mm 5 m/S 763 mmHg 71%
    05:00 +5°C° 0 mm 5 m/S 763 mmHg 72%
    06:00 +5°C° 0 mm 4 m/S 764 mmHg 72%
    07:00 +6°C° 0 mm 4 m/S 764 mmHg 69%
    08:00 +6°C° 0 mm 4 m/S 764 mmHg 65%
    09:00 +7°C° 0 mm 4 m/S 765 mmHg 61%
    10:00 +8°C° 0 mm 4 m/S 765 mmHg 59%
    11:00 +8°C° 0 mm 4 m/S 764 mmHg 56%
    12:00 +10°C° 0 mm 3 m/S 764 mmHg 54%
    13:00 +10°C° 0 mm 3 m/S 764 mmHg 53%
    14:00 +10°C° 0 mm 3 m/S 763 mmHg 53%
    15:00 +10°C° 0 mm 3 m/S 763 mmHg 52%
    16:00 +10°C° 0 mm 3 m/S 763 mmHg 53%
    17:00 +10°C° 0 mm 3 m/S 763 mmHg 54%
    18:00 +9°C° 0 mm 3 m/S 763 mmHg 56%
    19:00 +9°C° 0 mm 3 m/S 763 mmHg 58%
    20:00 +9°C° 0 mm 2 m/S 763 mmHg 60%
    21:00 +9°C° 0 mm 2 m/S 763 mmHg 62%
    22:00 +9°C° 0 mm 2 m/S 762 mmHg 64%
    23:00 +8°C° 0 mm 2 m/S 762 mmHg 65%

    27 März, Mittwoch

    Zeit Temperatur Niederschläge Wind Luftdruck Luftfeuchtigkeit
    00:00 +8°C° 0 mm 2 m/S 761 mmHg 66%
    01:00 +8°C° 0 mm 3 m/S 761 mmHg 67%
    02:00 +7°C° 0 mm 4 m/S 760 mmHg 67%
    03:00 +7°C° 0 mm 4 m/S 760 mmHg 68%
    04:00 +7°C° 0 mm 4 m/S 760 mmHg 68%
    05:00 +8°C° 0 mm 4 m/S 760 mmHg 68%
    06:00 +8°C° 0 mm 5 m/S 760 mmHg 69%
    07:00 +8°C° 0 mm 5 m/S 760 mmHg 67%
    08:00 +9°C° 0 mm 6 m/S 760 mmHg 64%
    09:00 +10°C° 0 mm 6 m/S 761 mmHg 62%
    10:00 +10°C° 0 mm 6 m/S 760 mmHg 60%
    11:00 +12°C° 0 mm 5 m/S 760 mmHg 58%
    12:00 +13°C° 0 mm 5 m/S 760 mmHg 56%
    13:00 +13°C° 0 mm 4 m/S 760 mmHg 57%
    14:00 +13°C° 0 mm 4 m/S 760 mmHg 58%
    15:00 +13°C° 0 mm 3 m/S 760 mmHg 58%
    16:00 +12°C° 0 mm 3 m/S 760 mmHg 63%
    17:00 +11°C° 0 mm 3 m/S 760 mmHg 67%
    18:00 +12°C° 0 mm 2 m/S 761 mmHg 72%
    19:00 +12°C° 0 mm 2 m/S 761 mmHg 73%
    20:00 +11°C° 0 mm 1 m/S 761 mmHg 75%
    21:00 +11°C° 0 mm 1 m/S 762 mmHg 77%
    22:00 +11°C° 0 mm 1 m/S 762 mmHg 77%
    23:00 +11°C° 0 mm 1 m/S 762 mmHg 78%

    28 März, Donnerstag

    Zeit Temperatur Niederschläge Wind Luftdruck Luftfeuchtigkeit
    00:00 +11°C° 0 mm 1 m/S 762 mmHg 79%
    01:00 +10°C° 0 mm 1 m/S 762 mmHg 78%
    02:00 +10°C° 0 mm 1 m/S 762 mmHg 77%
    03:00 +10°C° 0 mm 1 m/S 762 mmHg 77%
    04:00 +9°C° 0 mm 2 m/S 763 mmHg 74%
    05:00 +9°C° 0 mm 2 m/S 763 mmHg 72%
    06:00 +9°C° 0 mm 2 m/S 763 mmHg 70%
    07:00 +10°C° 0 mm 4 m/S 764 mmHg 65%
    08:00 +10°C° 0 mm 6 m/S 764 mmHg 60%
    09:00 +11°C° 0 mm 8 m/S 765 mmHg 55%
    10:00 +11°C° 0 mm 10 m/S 765 mmHg 59%
    11:00 +9°C° 0 mm 12 m/S 765 mmHg 62%
    12:00 +8°C° 0 mm 14 m/S 766 mmHg 66%
    13:00 +8°C° 0 mm 14 m/S 766 mmHg 65%
    14:00 +6°C° 0 mm 14 m/S 766 mmHg 64%
    15:00 +6°C° 0 mm 14 m/S 766 mmHg 63%
    16:00 +5°C° 0 mm 14 m/S 767 mmHg 63%
    17:00 +5°C° 0 mm 14 m/S 767 mmHg 63%
    18:00 +4°C° 0 mm 14 m/S 768 mmHg 63%
    19:00 +4°C° 0 mm 14 m/S 768 mmHg 61%
    20:00 +4°C° 0 mm 13 m/S 769 mmHg 59%
    21:00 +4°C° 0 mm 13 m/S 769 mmHg 57%
    22:00 +4°C° 0.1 mm 12 m/S 769 mmHg 58%
    23:00 +4°C° 0.1 mm 12 m/S 769 mmHg 58%

    29 März, Freitag

    Zeit Temperatur Niederschläge Wind Luftdruck Luftfeuchtigkeit
    00:00 +3°C° 0.1 mm 11 m/S 769 mmHg 59%
    01:00 +3°C° 0.1 mm 11 m/S 769 mmHg 59%
    02:00 +3°C° 0.1 mm 11 m/S 769 mmHg 59%
    03:00 +3°C° 0.1 mm 11 m/S 769 mmHg 59%
    04:00 +3°C° 0 mm 10 m/S 769 mmHg 59%
    05:00 +3°C° 0 mm 10 m/S 770 mmHg 59%
    06:00 +3°C° 0 mm 9 m/S 770 mmHg 59%
    07:00 +3°C° 0 mm 9 m/S 770 mmHg 58%
    08:00 +5°C° 0 mm 8 m/S 770 mmHg 58%
    09:00 +5°C° 0 mm 7 m/S 771 mmHg 57%
    10:00 +5°C° 0.1 mm 7 m/S 770 mmHg 57%
    11:00 +7°C° 0.1 mm 6 m/S 770 mmHg 56%
    12:00 +7°C° 0.1 mm 5 m/S 770 mmHg 55%
    13:00 +7°C° 0 mm 4 m/S 769 mmHg 56%
    14:00 +7°C° 0 mm 4 m/S 769 mmHg 57%
    15:00 +9°C° 0 mm 3 m/S 768 mmHg 57%
    16:00 +8°C° 0 mm 3 m/S 768 mmHg 58%
    17:00 +8°C° 0 mm 3 m/S 768 mmHg 60%
    18:00 +8°C° 0 mm 3 m/S 768 mmHg 61%
    19:00 +8°C° 0 mm 3 m/S 768 mmHg 63%
    20:00 +8°C° 0 mm 3 m/S 767 mmHg 66%
    21:00 +8°C° 0 mm 3 m/S 767 mmHg 68%
    22:00 +7°C° 0 mm 4 m/S 767 mmHg 70%
    23:00 +6°C° 0 mm 4 m/S 766 mmHg 72%
    Mehr zeigen